Waarnemingen

Advertentie
Mijn weer
Alghero, Italië (16520): temperatuur & dauwpunt: 18.02.2018 22:00:00 - 24.02.2018 22:00:00 (CET)Alghero, Italië (16520): windsnelheid: 18.02.2018 22:00:00 - 24.02.2018 22:00:00 (CET)Alghero, Italië (16520): windrichting: 18.02.2018 22:00:00 - 24.02.2018 22:00:00 (CET)Alghero, Italië (16520): luchtdruk: 18.02.2018 22:00:00 - 24.02.2018 22:00:00 (CET)Alghero, Italië (16520): zicht: 18.02.2018 22:00:00 - 24.02.2018 22:00:00 (CET)Alghero, Italië (16520): neerslag: 18.02.2018 22:00:00 - 24.02.2018 22:00:00 (CET)
Datum & Tijd tt [°C] td [°C] ff [km/u] ff [kn] dd ppp [hPa] vv [km] rr [mm]
24.02.2018 22:00:00 6,6 5,9 4 2 - 1007,1 10 0,0
24.02.2018 21:00:00 8,0 6,0 2 1 - - 10 -
24.02.2018 20:00:00 8,0 6,0 8 4 WZW - 10 -
24.02.2018 19:00:00 8,7 5,8 8 4 W 1006,2 10 -
24.02.2018 18:00:00 11,0 6,0 13 7 WZW - 10 -
24.02.2018 17:00:00 12,0 6,0 15 8 W - 10 -
24.02.2018 16:00:00 11,6 5,8 16 9 W 1005,5 10 0,0
24.02.2018 15:00:00 12,0 6,0 15 8 WNW - 10 -
24.02.2018 14:00:00 13,0 6,0 15 8 WNW - 10 -
24.02.2018 13:00:00 12,3 6,1 16 9 W 1005,2 10 -
24.02.2018 12:00:00 12,0 6,0 13 7 NW - 10 -
24.02.2018 11:00:00 11,0 8,0 15 8 NNW - 10 -
24.02.2018 10:00:00 10,0 8,0 9 5 N - 10 -
24.02.2018 09:00:00 9,0 8,0 5 3 NNW - 10 -
24.02.2018 08:00:00 8,0 8,0 5 3 - - 10 -
24.02.2018 07:00:00 7,9 7,6 8 4 W 1003,7 9 -
24.02.2018 06:00:00 - - - - - - - -
24.02.2018 05:00:00 9,0 6,0 8 4 WNW - 10 -
24.02.2018 04:00:00 9,4 7,1 8 4 W 1003,0 10 0,0
24.02.2018 03:00:00 9,0 7,0 9 5 W - 10 -
24.02.2018 02:00:00 9,0 7,0 15 8 W - 10 -
24.02.2018 01:00:00 8,8 6,7 18 10 W 1002,6 10 -
24.02.2018 00:00:00 9,0 7,0 18 10 W - 10 -
23.02.2018 23:00:00 10,0 8,0 15 8 W - 10 -
23.02.2018 22:00:00 10,0 7,8 16 9 W 1002,2 10 0,0
23.02.2018 21:00:00 10,0 8,0 16 9 WNW - 10 -
23.02.2018 20:00:00 10,0 8,0 16 9 WNW - 10 -
23.02.2018 19:00:00 9,7 7,5 8 4 NW 1001,7 10 -
23.02.2018 18:00:00 10,0 8,0 9 5 NW - 10 -
23.02.2018 17:00:00 11,0 7,0 13 7 NW - 10 -
23.02.2018 16:00:00 11,6 6,7 15 8 WNW 1001,0 10 0,0
23.02.2018 15:00:00 11,0 6,0 11 6 NW - 10 -
23.02.2018 14:00:00 12,0 5,0 15 8 NW - 10 -
23.02.2018 13:00:00 11,9 5,1 13 7 N 1001,6 10 -
23.02.2018 12:00:00 12,0 8,0 8 4 N - 10 -
23.02.2018 11:00:00 10,0 5,0 8 4 N - 10 -
23.02.2018 10:00:00 8,6 7,9 4 2 Z 1001,6 10 0,0
23.02.2018 09:00:00 5,0 5,0 2 1 - - 10 -
23.02.2018 08:00:00 3,0 3,0 4 2 - - 10 -
23.02.2018 07:00:00 2,7 2,7 5 3 N 1000,6 10 -
23.02.2018 06:00:00 2,0 2,0 2 1 - - 10 -
23.02.2018 05:00:00 2,0 2,0 5 3 NNO - 10 -
23.02.2018 04:00:00 2,1 2,1 8 4 NO 1000,5 - 0,0
23.02.2018 03:00:00 3,0 3,0 2 1 - - 10 -
23.02.2018 02:00:00 4,0 4,0 4 2 NNO - 10 -
23.02.2018 01:00:00 4,1 4,1 2 1 - 1001,6 10 -
23.02.2018 00:00:00 4,0 4,0 4 2 Z - 10 -
22.02.2018 23:00:00 6,0 5,0 4 2 - - 10 -
22.02.2018 22:00:00 5,2 4,9 4 2 - 1002,0 10 0,0
22.02.2018 21:00:00 6,0 6,0 4 2 - - 10 -
22.02.2018 20:00:00 8,0 6,0 8 4 ONO - 10 -
22.02.2018 19:00:00 8,8 5,3 9 5 ONO 1001,2 10 -
22.02.2018 18:00:00 10,0 5,0 11 6 ONO - 10 -
22.02.2018 17:00:00 11,0 5,0 18 10 NO - 10 -
22.02.2018 16:00:00 10,3 6,1 15 8 NNO 1000,5 10 0,0
22.02.2018 15:00:00 - - - - - - - -
22.02.2018 14:00:00 11,0 5,0 5 3 Z - 10 -
22.02.2018 13:00:00 10,4 4,6 4 2 - 1001,0 10 -
22.02.2018 12:00:00 9,0 4,0 4 2 - - 10 -
22.02.2018 11:00:00 9,0 5,0 2 1 - - 10 -
22.02.2018 10:00:00 7,8 5,4 2 1 - 1000,9 10 0,0
22.02.2018 09:00:00 6,0 5,0 2 1 - - 10 -
22.02.2018 08:00:00 5,0 5,0 5 3 NNW - 10 -
22.02.2018 07:00:00 5,4 4,5 8 4 N 1000,6 10 -
22.02.2018 06:00:00 5,0 4,0 2 1 - - 10 -
22.02.2018 05:00:00 5,0 5,0 8 4 N - 10 -
22.02.2018 04:00:00 5,4 4,7 8 4 NNO 1000,9 10 0,0
22.02.2018 03:00:00 6,0 5,0 8 4 NNO - 10 -
22.02.2018 02:00:00 6,0 5,0 5 3 N - 10 -
22.02.2018 01:00:00 6,3 4,5 4 2 OZO 1002,3 10 -
22.02.2018 00:00:00 6,0 5,0 8 4 NO - 10 -
21.02.2018 23:00:00 6,0 4,0 9 5 NNO - 10 -
21.02.2018 22:00:00 5,6 4,9 9 5 NNO 1002,8 10 0,0
21.02.2018 21:00:00 6,0 6,0 9 5 NNO - 10 -
21.02.2018 20:00:00 6,0 6,0 11 6 NNO - 10 -
21.02.2018 19:00:00 6,5 5,6 5 3 NO 1002,5 10 -
21.02.2018 18:00:00 7,0 4,0 4 2 NNO - 10 -
21.02.2018 17:00:00 7,0 4,0 18 10 NNO - 10 -
21.02.2018 16:00:00 9,9 4,9 15 8 N 1001,6 10 0,0
21.02.2018 15:00:00 12,0 2,0 11 6 W - 10 -
21.02.2018 14:00:00 12,0 5,0 15 8 Z - 10 -
21.02.2018 13:00:00 11,3 4,3 13 7 ZZW 1002,5 10 -
21.02.2018 12:00:00 12,0 3,0 4 2 - - 10 -
21.02.2018 11:00:00 11,0 6,0 5 3 ZZO - 10 -
21.02.2018 10:00:00 8,0 5,3 5 3 ZO 1003,1 10 0,0
21.02.2018 09:00:00 5,0 5,0 2 1 - - 10 -
21.02.2018 08:00:00 1,0 1,0 4 2 - - 10 -
21.02.2018 07:00:00 0,7 0,7 2 1 - 1002,7 8 -
21.02.2018 06:00:00 2,0 2,0 4 2 O - 10 -
21.02.2018 05:00:00 2,0 2,0 4 2 - - 10 -
21.02.2018 04:00:00 1,9 1,9 4 2 - 1003,5 10 0,0
21.02.2018 03:00:00 2,0 2,0 4 2 - - 8 -
21.02.2018 02:00:00 3,0 3,0 5 3 W - 10 -
21.02.2018 01:00:00 4,1 4,0 4 2 - 1005,3 10 -
21.02.2018 00:00:00 4,0 4,0 4 2 - - 10 -
20.02.2018 23:00:00 6,0 4,0 8 4 N - 10 -
20.02.2018 22:00:00 5,4 4,7 5 3 NNO 1005,2 10 0,0
20.02.2018 21:00:00 7,0 5,0 8 4 N - 10 -
20.02.2018 20:00:00 7,0 6,0 9 5 N - 10 -
20.02.2018 19:00:00 8,4 5,6 18 10 NNO 1003,7 10 -
20.02.2018 18:00:00 10,0 6,0 11 6 NO - 10 -
20.02.2018 17:00:00 12,0 4,0 13 7 N - 10 -
20.02.2018 16:00:00 12,3 3,6 13 7 WNW 1002,5 10 0,0
20.02.2018 15:00:00 13,0 7,0 18 10 W - 10 -
20.02.2018 14:00:00 13,0 4,0 16 9 W - 10 -
20.02.2018 13:00:00 12,0 3,5 18 10 W 1005,0 10 -
20.02.2018 12:00:00 12,0 4,0 21 11 W - 10 -
20.02.2018 11:00:00 11,0 4,0 15 8 W - 10 -
20.02.2018 10:00:00 9,0 8,3 2 1 - 1007,5 8 0,0
20.02.2018 09:00:00 7,0 7,0 4 2 - - 10 -
20.02.2018 08:00:00 7,0 7,0 4 2 - - 10 -
20.02.2018 07:00:00 6,6 6,6 5 3 OZO 1008,8 10 -
20.02.2018 06:00:00 7,0 7,0 4 2 - - 10 -
20.02.2018 05:00:00 - - - - - - - -
20.02.2018 04:00:00 7,0 6,7 8 4 ZW 1010,5 10 0,0
20.02.2018 03:00:00 7,0 7,0 4 2 - - 10 -
20.02.2018 02:00:00 6,0 6,0 5 3 OZO - 10 -
20.02.2018 01:00:00 5,7 5,4 2 1 ZO 1012,3 10 -
20.02.2018 00:00:00 6,0 5,0 4 2 ZO - 10 -
19.02.2018 23:00:00 8,0 5,0 4 2 Z - 10 -
19.02.2018 22:00:00 9,8 4,9 11 6 N 1013,0 10 0,0
19.02.2018 21:00:00 10,0 7,0 8 4 NNW - 10 -
19.02.2018 20:00:00 10,0 6,0 8 4 N - 10 -
19.02.2018 19:00:00 10,2 6,2 4 2 - 1012,7 10 -
19.02.2018 18:00:00 12,0 6,0 8 4 N - 10 -
19.02.2018 17:00:00 13,0 6,0 13 7 NNW - 10 -
19.02.2018 16:00:00 13,8 7,7 15 8 W 1012,3 10 0,0
19.02.2018 15:00:00 14,0 7,0 15 8 W - 10 -
19.02.2018 14:00:00 14,0 7,0 18 10 W - 10 -
19.02.2018 13:00:00 13,7 6,0 15 8 W 1013,7 10 -
19.02.2018 12:00:00 14,0 6,0 15 8 W - 10 -
19.02.2018 11:00:00 13,0 7,0 11 6 NW - 10 -
19.02.2018 10:00:00 12,9 8,0 9 5 NW 1014,4 10 0,0
19.02.2018 09:00:00 11,0 9,0 4 2 Z - 10 -
19.02.2018 08:00:00 9,0 8,0 2 1 - - 10 -
19.02.2018 07:00:00 8,9 8,5 2 1 - 1014,0 10 -
19.02.2018 06:00:00 9,0 9,0 2 1 - - 10 -
19.02.2018 05:00:00 - - - - - - - -
19.02.2018 04:00:00 9,0 8,0 4 2 - - 10 -
19.02.2018 03:00:00 - - - - - - - -
19.02.2018 02:00:00 - - - - - - - -
19.02.2018 01:00:00 10,2 8,3 2 1 N 1014,9 - -
19.02.2018 00:00:00 11,0 8,0 2 1 - - 10 -
18.02.2018 23:00:00 11,0 8,0 8 4 NW - 10 -
18.02.2018 22:00:00 11,4 8,5 9 5 N 1015,2 10 0,0

tt = temperatuur
td = dauwpunt
ff = windsnelheid
dd = windrichting
ppp = luchtdruk
vv = zicht
rr = neerslag

Weerstations in de omgeving